Wetbulb
64.58 64.53 64.70 64.77 64.74 64.35 63.77 63.24 63.09 63.19 63.28 62.97 62.86 63.67 63.67 63.03 61.57 60.14 56.29 63.38 64.22 69.15 65.62 60.78 60.19 59.38 58.67 57.21 57.47 55.55 45.49 43.72 46.70 47.25 48.11 50.47 48.25 50.42 50.21 46.81 48.65 48.85 47.63 53.12 55.45
64.59 64.35 64.65 64.51 64.65 64.36 63.95 63.31 63.07 63.18 63.16 63.15 63.36 63.41 62.90 62.05 57.95 56.14 65.55 68.92 69.94 68.66 59.21 57.96 55.66 55.25 52.86 54.77 53.78 49.43 45.04 46.55 47.36 45.93 45.60 47.97 47.44 47.52 47.03 47.02 46.59 47.34 51.84 53.22 53.43
64.01 64.07 64.40 64.27 64.24 64.39 63.96 63.63 63.26 63.11 62.96 63.07 63.49 62.74 62.11 60.34 56.12 55.05 70.15 69.88 69.93 67.20 60.30 58.26 55.71 54.24 52.07 52.31 51.32 49.92 44.99 48.77 48.38 50.22 49.78 48.28 47.44 49.15 45.95 44.53 47.88 46.52 48.49 50.26 50.28
63.62 63.95 64.17 64.09 63.96 64.04 63.76 63.58 63.32 62.95 62.42 62.67 63.03 62.49 61.82 58.25 47.36 58.91 70.21 70.53 69.61 63.16 59.00 56.12 54.19 51.14 50.50 48.15 51.30 45.28 48.89 49.02 50.35 50.60 49.22 47.00 48.64 46.03 46.73 46.52 48.78 48.31 49.27 48.88 49.03
63.82 63.86 63.94 63.95 63.61 63.72 63.55 63.46 63.01 62.54 62.06 62.19 62.60 62.01 58.23 54.21 53.66 63.20 68.72 68.21 62.30 59.56 57.34 54.49 52.40 52.42 48.31 48.92 49.22 46.54 47.68 48.71 48.55 48.45 48.00 49.03 46.28 46.01 46.99 48.83 48.44 49.75 50.96 48.95 49.32
63.64 63.75 63.72 63.75 63.60 63.44 63.36 63.19 62.62 62.26 61.99 61.90 62.15 61.05 56.53 49.23 58.41 63.65 62.36 60.98 59.15 57.44 55.33 54.81 53.20 52.73 49.86 48.77 46.92 48.45 48.09 47.27 47.45 47.18 47.59 46.24 45.94 46.14 47.57 47.86 48.40 49.11 48.87 48.42 48.97
63.14 63.06 63.29 63.29 63.15 63.05 62.89 62.32 61.86 61.72 61.25 60.81 61.68 58.98 53.93 52.64 57.94 61.79 62.13 59.79 58.81 57.14 54.63 56.43 55.00 52.39 51.65 48.33 50.31 48.23 43.72 45.73 46.10 47.03 45.99 46.63 43.63 44.13 47.28 47.84 47.80 47.71 47.36 48.98 49.54
62.45 62.53 62.75 62.59 62.59 62.48 62.13 61.71 61.42 60.59 60.53 60.72 61.54 57.80 51.19 57.25 58.82 59.13 59.24 56.29 57.29 57.23 56.69 56.11 55.81 53.66 51.20 50.80 47.80 43.88 43.74 39.20 45.00 46.33 46.07 43.82 39.58 46.20 46.97 46.50 45.78 46.76 46.46 47.76 48.96
61.78 61.78 62.22 61.95 61.85 61.56 61.01 60.56 60.45 60.65 60.52 61.15 57.26 55.34 49.94 58.10 54.29 57.57 57.61 54.48 55.49 55.87 56.52 55.72 55.10 51.14 50.17 44.46 41.53 42.77 36.96 39.93 42.59 46.40 45.11 43.11 40.00 45.68 47.01 45.56 45.72 45.25 45.54 46.98 47.48
61.11 60.81 61.19 61.33 61.11 60.58 59.94 59.57 59.75 59.00 58.04 58.68 56.84 50.71 53.10 51.47 55.42 56.15 57.20 56.37 53.80 53.45 52.28 51.87 50.04 46.40 45.58 42.17 35.02 38.29 37.98 40.25 38.55 43.05 42.92 41.02 41.10 45.26 46.16 45.63 43.75 44.66 45.16 45.44 46.38
60.55 60.29 60.69 60.75 60.40 59.77 57.76 55.30 52.04 50.60 53.47 48.79 49.64 49.22 51.80 54.24 55.71 53.53 55.73 54.08 53.69 50.96 45.89 49.25 44.87 42.33 44.45 45.00 44.03 41.81 39.94 38.74 41.56 43.95 41.00 40.78 41.37 44.30 45.44 44.64 43.54 43.75 44.46 44.90 45.82
60.28 59.45 60.24 60.37 59.90 59.08 57.44 51.47 51.50 52.66 47.20 52.10 51.53 52.08 53.86 54.17 49.61 52.15 55.10 49.82 49.21 45.23 48.08 45.72 41.97 47.12 48.02 45.65 43.34 41.84 39.24 38.54 42.27 43.75 39.94 40.55 40.80 44.15 43.54 43.58 44.45 44.50 44.30 44.85 45.66
59.85 59.47 59.58 59.39 58.79 56.88 53.46 52.57 57.41 55.90 46.87 49.36 51.05 49.27 51.05 52.82 48.74 50.12 52.17 50.50 47.90 45.48 46.22 43.66 46.20 47.48 45.98 43.07 41.88 40.32 38.68 39.01 39.02 41.26 41.84 39.07 38.16 40.75 43.45 45.17 46.17 46.02 46.20 46.38 45.82
59.26 59.16 58.53 57.61 54.07 53.89 51.14 55.19 56.15 56.04 40.78 43.70 47.62 50.37 50.49 52.34 48.06 53.03 52.87 50.61 47.75 45.26 46.49 45.39 48.85 45.28 43.48 42.16 42.79 38.09 42.68 42.23 41.14 37.01 32.74 39.45 30.10 36.03 40.78 41.60 43.26 44.13 44.45 45.10 45.85
59.07 58.84 57.86 56.61 53.56 50.71 52.00 55.65 55.83 53.41 30.15 46.00 47.03 53.17 51.62 48.63 49.40 49.08 51.59 50.25 45.23 45.22 44.62 42.45 42.72 42.23 41.54 42.50 44.19 41.29 44.02 41.58 41.07 37.19 34.89 36.41 31.93 36.99 41.22 39.01 41.03 42.12 44.32 45.12 45.76
58.72 58.44 57.46 55.37 54.70 53.80 55.90 55.64 53.08 39.36 29.95 41.32 46.25 45.38 45.93 48.05 48.59 48.17 48.57 50.23 49.81 45.68 44.96 44.12 46.37 44.88 43.71 44.76 44.73 45.11 41.94 40.85 38.68 36.03 29.53 35.60 35.50 33.65 37.54 40.07 41.72 43.31 44.15 45.68 46.11
58.36 57.90 56.61 55.63 50.61 56.28 55.81 51.60 38.25 32.89 43.20 39.45 41.02 44.65 44.46 43.88 45.09 45.33 43.64 42.39 41.02 37.36 37.83 42.49 42.39 44.66 45.82 41.57 43.37 41.29 37.14 31.07 28.99 28.11 29.21 35.81 34.30 36.24 41.95 43.27 44.06 43.85 44.41 45.39 46.06
57.33 56.92 56.74 55.09 55.23 55.94 52.52 44.21 33.36 40.20 40.30 44.56 43.78 43.45 40.87 44.15 44.23 43.99 42.84 40.53 44.16 42.82 39.54 36.71 35.55 41.96 44.26 42.12 40.27 39.19 37.72 32.11 25.50 27.21 30.30 35.76 30.51 36.94 42.30 43.83 45.36 46.62 46.19 46.08 45.55
56.03 56.09 54.08 54.67 55.62 54.77 47.36 36.58 37.47 41.59 43.78 41.80 42.72 39.40 39.83 42.76 42.08 42.00 41.43 41.28 43.78 44.24 38.90 37.51 37.12 42.89 44.23 44.37 43.05 39.73 35.62 38.25 33.87 33.79 29.14 32.78 34.85 38.19 41.32 40.16 40.78 42.84 45.29 45.21 45.37
54.63 52.66 51.33 55.44 55.50 51.58 43.44 39.28 41.64 44.35 44.96 43.96 38.57 41.30 37.29 39.67 39.03 40.05 40.08 43.67 43.42 45.85 46.26 41.19 34.70 41.69 41.45 42.42 42.10 38.71 40.71 33.21 33.44 25.23 24.01 31.69 31.35 34.48 36.70 38.95 41.37 41.60 42.89 44.23 45.28
52.28 46.26 51.53 55.20 53.73 46.96 37.99 40.11 43.26 45.05 45.90 42.89 41.39 40.20 41.19 39.40 40.23 39.52 40.28 43.22 45.32 45.01 45.95 42.45 39.54 36.68 39.74 38.18 38.05 36.85 35.85 36.48 35.76 34.17 27.21 25.54 31.30 39.09 39.91 41.20 40.72 41.53 43.56 44.07 44.48
49.62 42.55 51.73 53.50 43.39 44.11 39.65 42.84 45.50 45.58 45.50 44.76 44.20 44.36 41.77 41.69 39.71 39.68 39.95 42.78 45.52 44.71 40.53 42.41 38.91 33.57 36.89 40.15 41.09 38.80 38.59 37.96 31.80 30.26 32.77 30.44 31.22 40.52 41.24 42.67 43.38 42.67 43.84 44.62 45.42
45.75 45.74 52.33 50.89 37.35 39.34 43.65 43.42 45.61 44.90 43.98 43.68 42.97 45.39 44.31 41.55 38.33 41.16 42.23 44.11 45.74 43.53 41.44 42.32 37.59 33.85 33.88 36.26 37.01 36.52 39.38 39.50 38.19 36.30 31.79 28.47 32.07 41.65 39.60 40.94 43.69 42.76 43.46 44.13 44.71
47.49 40.49 44.61 46.14 45.90 42.38 40.36 41.90 41.75 46.27 45.58 45.42 44.02 44.71 42.35 40.89 41.60 40.47 41.22 44.01 44.05 44.94 46.76 45.74 39.61 37.37 33.67 34.25 38.04 34.59 37.61 38.94 36.78 31.25 31.51 33.36 35.55 38.31 40.07 40.75 42.10 43.01 43.12 43.26 43.74
48.33 43.61 44.16 37.83 40.49 42.69 43.34 43.29 41.66 40.84 44.96 45.33 42.37 43.00 42.11 39.43 40.09 40.13 41.92 41.39 43.47 44.97 42.52 42.04 37.14 38.93 39.92 39.35 38.67 37.78 38.07 38.40 35.75 36.99 31.96 36.03 35.79 39.22 39.94 40.31 41.70 43.78 43.54 43.55 42.74
44.53 44.82 45.00 42.84 43.54 42.34 42.48 42.22 42.14 42.85 43.00 42.01 41.16 43.07 42.66 40.45 41.64 39.58 42.00 41.25 40.74 41.09 40.93 41.80 36.97 38.10 36.17 40.12 39.03 36.81 38.57 38.70 38.60 38.94 38.31 38.24 37.38 40.65 42.51 41.57 42.36 41.55 43.25 43.58 43.43
50.89 51.60 47.00 43.45 42.38 41.21 41.49 42.89 43.38 45.04 45.21 45.95 44.03 42.86 41.35 43.20 44.38 43.69 44.01 43.80 43.66 40.89 39.59 39.05 37.30 35.68 31.11 37.03 36.71 32.34 37.38 38.65 39.11 39.62 38.81 35.15 38.93 40.92 40.16 41.60 39.68 40.97 42.11 42.69 43.13
MSLP
1017.09 1017.12 1017.15 1017.17 1017.21 1017.20 1017.43 1017.23 1017.11 1017.02 1017.12 1016.88 1016.57 1016.28 1015.83 1015.60 1014.96 1014.51 1013.61 1012.64 1012.28 1012.51 1012.81 1012.42 1012.32 1012.00 1011.91 1011.84 1012.02 1011.90 1011.94 1011.38 1010.84 1010.72 1010.80 1010.95 1011.31 1011.23 1011.32 1011.61 1011.63 1011.58 1011.94 1013.15 1013.73
1016.85 1016.88 1017.00 1017.04 1017.20 1017.22 1017.16 1017.02 1017.00 1017.16 1016.95 1016.79 1016.51 1016.09 1015.72 1015.51 1014.86 1013.37 1012.07 1012.15 1012.43 1012.62 1012.72 1012.18 1011.75 1011.73 1011.86 1011.80 1012.09 1012.18 1012.03 1011.40 1011.17 1011.12 1011.26 1011.32 1011.68 1011.83 1012.08 1012.00 1011.89 1011.80 1012.32 1012.76 1013.23
1016.62 1016.68 1016.62 1016.73 1016.94 1016.96 1016.91 1017.01 1017.04 1017.20 1016.75 1016.66 1016.44 1015.95 1015.61 1015.40 1014.27 1011.98 1011.56 1011.92 1012.42 1012.69 1012.50 1011.84 1011.60 1011.61 1011.60 1011.89 1011.96 1011.89 1011.97 1011.66 1011.52 1011.72 1011.89 1012.01 1012.19 1012.15 1012.39 1012.47 1012.55 1012.82 1012.96 1013.19 1013.38
1016.26 1016.45 1016.60 1016.66 1016.71 1016.83 1016.94 1017.06 1017.10 1017.04 1016.63 1016.61 1016.38 1015.83 1015.44 1015.07 1013.59 1012.02 1012.03 1011.98 1012.41 1012.63 1012.46 1011.91 1011.70 1011.61 1011.70 1011.84 1011.76 1012.23 1011.79 1011.70 1011.76 1012.24 1012.55 1012.52 1012.51 1012.70 1012.62 1012.65 1012.79 1013.02 1013.35 1013.53 1013.71
1016.00 1016.16 1016.29 1016.30 1016.39 1016.52 1016.60 1016.77 1016.74 1016.69 1016.67 1016.49 1016.06 1015.74 1015.08 1014.19 1012.36 1011.92 1012.05 1012.33 1012.46 1012.67 1012.26 1011.82 1011.66 1011.52 1011.80 1011.67 1011.94 1012.15 1012.05 1011.98 1011.98 1012.28 1012.63 1012.77 1012.86 1012.94 1012.66 1012.63 1012.90 1013.14 1013.34 1013.77 1014.07
1015.53 1015.79 1016.00 1016.03 1016.17 1016.31 1016.49 1016.55 1016.67 1016.79 1016.63 1016.08 1015.76 1015.74 1015.17 1013.26 1011.58 1011.87 1011.95 1012.36 1012.16 1012.26 1012.05 1011.83 1011.74 1011.85 1012.15 1012.07 1012.20 1012.17 1012.34 1012.24 1012.12 1012.15 1012.39 1012.87 1012.84 1012.80 1012.56 1012.70 1013.01 1013.30 1013.71 1014.04 1014.28
1015.06 1015.36 1015.60 1015.78 1015.87 1016.01 1016.25 1016.37 1016.45 1016.25 1016.18 1015.74 1015.63 1015.37 1014.16 1012.44 1011.61 1011.72 1011.74 1012.02 1012.05 1011.96 1011.88 1011.79 1012.02 1012.21 1012.23 1012.26 1012.22 1012.55 1012.62 1012.20 1011.75 1012.02 1012.50 1012.77 1012.93 1012.67 1012.67 1012.82 1013.13 1013.57 1014.12 1014.49 1014.64
1014.62 1014.96 1015.25 1015.51 1015.69 1015.85 1015.93 1016.08 1016.08 1016.11 1015.98 1015.59 1015.45 1015.06 1013.33 1011.74 1011.39 1011.82 1011.85 1011.92 1012.03 1012.00 1012.04 1012.07 1012.26 1012.40 1012.54 1012.56 1012.55 1012.52 1012.38 1012.18 1011.45 1012.06 1012.69 1013.13 1012.39 1012.35 1012.63 1012.92 1013.30 1013.76 1014.46 1014.92 1015.22
1014.18 1014.48 1014.85 1015.22 1015.54 1015.80 1015.85 1016.10 1016.09 1016.17 1015.92 1015.70 1015.44 1014.34 1012.66 1011.99 1011.71 1011.45 1011.62 1011.76 1012.04 1012.10 1012.31 1012.45 1012.45 1012.51 1012.66 1012.97 1012.71 1012.16 1012.01 1011.93 1011.98 1011.97 1012.46 1013.00 1012.63 1012.46 1012.61 1012.80 1013.44 1013.89 1014.69 1015.07 1015.53
1013.76 1014.07 1014.52 1014.93 1015.40 1015.80 1015.92 1015.89 1015.87 1015.88 1015.50 1015.01 1014.50 1014.04 1012.21 1011.55 1011.12 1011.13 1011.39 1011.58 1012.00 1012.25 1012.73 1012.72 1012.63 1012.64 1012.71 1012.76 1012.52 1012.11 1012.05 1011.71 1011.72 1012.29 1012.49 1012.76 1012.61 1012.47 1012.45 1012.90 1013.48 1013.94 1014.86 1015.49 1015.76
1013.38 1013.69 1014.26 1014.77 1015.14 1015.53 1015.98 1015.57 1015.65 1015.49 1014.46 1013.25 1012.72 1012.07 1011.20 1011.33 1011.34 1011.27 1011.39 1011.72 1011.92 1012.33 1012.70 1012.59 1012.63 1012.41 1012.19 1011.91 1011.97 1012.18 1012.35 1012.41 1011.98 1012.35 1012.49 1012.66 1012.42 1012.01 1012.22 1012.78 1013.57 1014.18 1014.85 1015.72 1016.01
1012.91 1013.37 1014.02 1014.59 1015.00 1015.36 1015.68 1014.51 1012.60 1012.66 1012.86 1012.57 1012.03 1011.85 1011.62 1011.68 1011.38 1011.06 1011.37 1011.95 1011.98 1012.10 1012.62 1012.68 1012.27 1012.11 1011.87 1012.07 1012.25 1012.56 1012.68 1012.62 1012.25 1012.42 1012.82 1012.68 1012.37 1011.99 1012.09 1012.55 1013.28 1013.86 1014.81 1015.86 1016.31
1012.58 1013.10 1013.76 1014.48 1015.03 1015.60 1014.65 1013.15 1012.42 1011.92 1011.98 1011.25 1011.20 1010.92 1011.13 1011.54 1011.28 1010.80 1011.19 1011.54 1011.61 1012.09 1012.26 1012.03 1011.75 1011.82 1011.89 1012.11 1012.58 1012.74 1012.76 1012.58 1012.65 1012.66 1012.70 1013.07 1012.54 1012.00 1012.20 1012.46 1012.84 1013.54 1014.64 1015.65 1016.23
1012.13 1012.80 1013.43 1014.35 1015.49 1013.76 1013.76 1012.96 1012.51 1011.93 1011.94 1010.56 1009.99 1009.77 1010.48 1011.03 1010.93 1010.57 1010.76 1011.21 1011.48 1011.57 1012.02 1011.80 1011.49 1011.99 1012.08 1012.25 1012.46 1012.60 1012.60 1012.57 1012.95 1013.46 1013.23 1013.18 1013.01 1012.36 1012.48 1012.88 1013.21 1013.83 1014.70 1015.51 1015.96
1011.77 1012.48 1013.02 1013.34 1012.46 1012.56 1011.86 1012.40 1012.50 1012.27 1011.61 1009.02 1009.74 1009.71 1009.47 1010.57 1010.20 1010.61 1010.88 1011.12 1011.30 1011.47 1011.88 1011.51 1011.73 1012.20 1012.17 1012.17 1012.29 1012.64 1012.77 1012.93 1013.26 1013.61 1013.63 1013.11 1013.47 1011.70 1012.10 1013.11 1013.50 1013.88 1014.60 1015.25 1015.65
1011.31 1012.16 1012.78 1013.57 1012.49 1011.42 1011.22 1012.02 1012.50 1012.82 1010.66 1009.49 1009.76 1009.68 1009.74 1010.25 1010.39 1011.24 1011.40 1011.52 1011.48 1011.72 1011.64 1011.74 1012.02 1012.10 1012.14 1012.43 1012.62 1012.87 1013.14 1013.29 1013.58 1013.95 1013.87 1012.46 1012.57 1012.20 1011.98 1011.87 1012.99 1013.61 1014.36 1014.95 1015.59
1010.92 1011.89 1012.51 1012.33 1011.55 1010.96 1011.26 1011.98 1012.79 1011.48 1009.69 1009.85 1009.84 1009.84 1010.06 1010.27 1010.83 1011.11 1011.53 1011.78 1011.54 1011.76 1011.70 1011.96 1012.11 1012.01 1012.39 1012.83 1013.11 1013.32 1013.49 1013.50 1014.09 1013.95 1013.12 1012.05 1012.12 1010.63 1010.52 1010.35 1011.28 1012.53 1013.77 1014.56 1015.30
1010.65 1011.78 1011.98 1011.51 1011.05 1010.73 1011.44 1011.74 1011.19 1009.46 1009.32 1009.45 1009.78 1009.99 1010.06 1010.05 1010.55 1010.94 1011.21 1011.50 1011.54 1011.35 1011.33 1011.62 1011.56 1011.60 1012.22 1012.35 1012.58 1013.14 1013.31 1013.08 1013.34 1013.14 1012.83 1012.48 1011.64 1010.45 1009.70 1009.73 1010.25 1011.22 1012.63 1013.76 1014.93
1010.61 1011.78 1011.74 1011.23 1011.03 1010.89 1010.81 1011.15 1009.59 1008.52 1008.52 1009.46 1009.93 1010.04 1009.85 1009.79 1010.33 1010.72 1010.88 1010.70 1010.67 1011.09 1011.19 1010.78 1011.28 1011.84 1011.96 1012.36 1012.53 1012.62 1012.91 1012.74 1013.19 1012.51 1012.74 1011.64 1010.75 1010.53 1010.26 1010.47 1010.71 1011.47 1012.35 1013.35 1014.41
1009.83 1010.93 1010.85 1010.55 1010.94 1010.84 1010.34 1009.54 1008.98 1008.67 1008.88 1008.92 1009.03 1009.20 1009.25 1009.61 1010.28 1010.33 1010.29 1009.34 1009.83 1010.01 1010.42 1010.43 1011.44 1012.14 1012.76 1012.76 1012.77 1012.88 1012.96 1013.03 1013.13 1013.08 1012.67 1011.15 1010.48 1010.18 1010.53 1010.82 1011.18 1011.70 1012.25 1013.05 1013.99
1009.19 1010.03 1009.88 1010.64 1010.66 1010.26 1008.70 1008.82 1008.96 1008.70 1008.76 1008.84 1008.64 1008.61 1008.52 1009.33 1009.85 1009.96 1009.28 1009.16 1009.25 1009.35 1009.93 1010.65 1010.88 1012.54 1012.82 1012.64 1012.21 1012.98 1012.68 1012.67 1012.74 1012.64 1012.69 1011.90 1010.87 1009.93 1009.85 1010.30 1011.00 1011.62 1012.18 1012.86 1013.93
1008.29 1009.09 1009.90 1010.01 1010.13 1009.43 1008.87 1008.46 1008.64 1008.47 1008.94 1008.78 1008.75 1008.07 1008.21 1008.55 1009.36 1009.71 1009.36 1009.07 1009.24 1009.52 1010.17 1010.55 1010.84 1011.71 1011.92 1011.76 1011.82 1011.97 1011.97 1012.21 1012.62 1012.71 1012.59 1012.12 1011.16 1009.91 1009.85 1009.91 1010.49 1011.32 1011.91 1012.72 1013.48
1007.08 1009.29 1010.25 1009.81 1008.84 1008.71 1008.89 1008.77 1008.72 1008.67 1008.63 1008.66 1008.52 1008.26 1008.19 1008.47 1009.19 1009.23 1009.30 1010.03 1009.78 1010.00 1010.36 1010.58 1010.91 1010.99 1011.84 1012.23 1012.05 1011.69 1011.55 1011.74 1012.07 1012.43 1012.44 1012.32 1010.87 1010.14 1009.80 1009.75 1010.19 1010.88 1011.60 1012.62 1013.59
1006.23 1008.20 1009.88 1009.67 1008.53 1008.03 1008.37 1008.24 1008.39 1008.43 1008.32 1008.36 1008.20 1008.18 1008.27 1008.49 1008.82 1009.11 1009.79 1010.52 1010.52 1010.44 1010.60 1010.55 1010.60 1010.40 1010.69 1010.74 1010.83 1011.34 1011.24 1011.53 1012.26 1012.44 1011.84 1011.45 1010.58 1010.26 1009.92 1009.98 1010.26 1010.83 1011.60 1012.71 1014.00
1005.33 1005.33 1006.34 1007.40 1007.74 1007.40 1007.57 1007.60 1007.75 1008.08 1008.34 1008.12 1008.28 1008.13 1008.16 1008.35 1008.84 1009.20 1009.86 1010.71 1011.05 1011.08 1010.96 1011.07 1010.90 1010.48 1010.09 1010.17 1010.52 1010.83 1011.14 1011.36 1011.73 1011.53 1011.90 1010.99 1010.62 1009.64 1009.63 1009.87 1010.06 1010.55 1011.65 1012.85 1014.04
1004.93 1003.65 1005.16 1005.94 1006.92 1007.00 1006.68 1006.51 1006.96 1007.50 1007.77 1007.87 1008.00 1008.13 1008.15 1008.32 1008.49 1008.92 1009.33 1010.04 1010.51 1011.61 1011.46 1011.24 1011.08 1010.68 1010.57 1010.43 1010.64 1010.87 1010.95 1010.95 1011.00 1010.93 1010.77 1010.65 1010.26 1009.72 1009.53 1009.58 1009.94 1010.65 1011.42 1012.45 1013.60
1004.30 1003.34 1003.39 1004.54 1005.64 1005.95 1005.40 1006.05 1006.47 1007.19 1007.40 1007.34 1007.77 1008.20 1008.33 1008.42 1008.61 1008.96 1009.20 1009.56 1010.22 1010.87 1011.36 1011.47 1011.51 1011.60 1011.41 1011.09 1011.02 1010.78 1010.23 1010.11 1010.08 1010.06 1010.08 1010.18 1009.63 1009.87 1010.07 1010.35 1010.66 1011.17 1011.59 1012.52 1013.58
Wind_Speed
9 8 8 7 7 7 9 8 7 7 9 10 8 9 9 11 15 5 6 2 5 10 3 5 6 7 6 3 4 3 3 5 4 4 1 7 1 3 2 3 5 3 2 8 7
10 10 8 7 8 8 8 8 7 8 7 10 9 8 9 10 5 8 5 7 8 9 4 9 9 6 5 2 2 2 3 5 6 7 5 4 2 4 5 8 8 3 8 8 9
11 10 10 8 8 8 8 8 7 9 7 10 10 9 9 10 6 3 11 11 8 7 9 7 4 5 3 3 5 4 5 5 6 8 9 5 5 2 4 6 6 5 8 9 7
12 11 11 10 9 9 7 7 8 8 8 9 10 10 10 4 2 3 4 9 7 6 10 6 6 6 1 4 2 3 9 3 4 6 3 5 3 4 7 2 6 5 6 4 6
12 11 11 11 9 9 8 7 6 7 8 8 8 9 7 6 7 5 9 5 5 5 9 7 6 2 5 0 0 7 9 5 3 1 5 7 6 7 7 7 4 3 1 5 7
11 11 11 11 9 8 7 6 7 7 8 7 8 10 4 7 3 8 8 6 8 7 8 6 4 7 6 4 3 7 5 8 7 5 3 2 7 4 5 4 6 4 7 6 5
12 11 11 10 9 8 7 7 7 7 8 6 7 5 7 11 3 4 4 7 8 7 8 2 6 4 7 7 6 5 7 9 10 4 1 2 8 7 6 5 5 8 8 7 7
12 12 10 10 9 8 6 6 5 8 9 8 6 5 6 1 2 4 5 4 2 3 4 5 2 4 3 4 4 6 8 5 5 7 6 4 5 8 6 7 4 9 8 8 8
12 12 12 10 8 7 5 5 5 9 9 9 6 5 6 2 5 9 9 7 7 3 2 1 3 3 3 5 7 8 5 7 5 7 5 7 3 8 6 2 7 8 8 8 8
13 12 11 10 9 8 6 4 4 5 5 6 6 4 6 8 5 5 7 7 6 6 3 4 3 5 5 5 6 6 4 5 3 7 5 5 9 8 11 8 6 9 9 8 8
13 11 11 10 8 8 6 4 3 4 10 8 7 8 6 6 1 4 8 6 8 7 6 8 5 7 13 9 8 5 7 8 9 3 3 7 9 9 10 8 7 8 10 8 8
13 13 11 10 9 9 7 6 0 4 4 18 12 11 9 6 4 10 11 9 7 9 10 6 8 11 8 5 4 5 8 9 8 7 2 8 9 9 4 5 9 10 10 10 8
14 12 13 11 10 6 11 6 4 3 3 5 20 16 11 10 6 8 10 11 10 10 13 13 7 4 3 3 3 7 8 8 5 1 8 4 9 8 4 6 8 9 11 9 10
16 13 15 14 5 9 9 11 3 3 3 6 10 7 14 6 7 10 13 11 6 11 12 13 10 7 5 5 6 7 5 4 5 2 3 6 6 3 8 5 5 8 10 10 10
16 17 20 20 1 8 6 10 5 2 4 5 7 2 10 12 5 4 4 3 8 7 7 3 7 5 6 8 5 6 2 2 4 5 6 6 2 9 14 9 9 8 8 10 10
18 19 20 9 4 5 9 11 3 3 8 5 5 6 7 17 10 3 2 3 3 7 7 5 3 4 2 3 1 5 3 5 4 2 4 9 10 4 11 14 13 11 9 10 10
19 20 15 8 3 4 11 8 4 7 3 6 6 11 13 12 15 7 9 8 7 6 7 6 8 4 6 4 1 3 4 2 2 2 5 2 3 9 11 11 15 16 13 11 10
19 18 13 7 3 10 7 9 9 12 8 5 5 10 14 11 14 12 10 12 14 9 4 10 6 14 8 7 5 8 5 3 4 1 1 1 6 4 5 7 8 17 15 13 11
22 9 6 7 5 6 11 12 8 2 8 9 8 9 8 7 4 9 15 15 13 17 9 5 5 4 5 1 2 4 5 1 4 6 2 5 3 3 6 3 3 6 14 13 12
10 8 7 9 8 6 8 14 10 4 1 8 8 8 8 10 5 10 11 12 15 17 16 4 3 2 2 1 2 2 3 2 3 3 5 5 2 4 7 7 6 6 10 11 10
10 6 6 10 6 8 13 9 7 4 2 5 5 7 7 9 11 12 5 1 12 9 15 5 4 3 5 7 8 3 3 4 1 1 2 3 4 4 7 10 11 9 7 10 10
9 6 8 9 8 8 13 12 13 6 3 0 3 2 5 9 11 10 8 3 3 8 5 6 3 5 4 3 3 2 6 7 3 3 3 3 7 4 6 5 9 9 9 9 10
9 6 2 7 13 13 9 17 14 10 5 5 4 3 1 5 4 8 4 4 6 6 6 7 5 4 2 1 1 4 5 4 2 2 6 2 6 1 2 3 7 8 10 8 9
7 7 3 4 10 15 19 15 20 4 4 6 2 2 3 3 3 4 3 1 2 1 1 1 3 5 4 3 5 4 6 7 6 3 3 9 10 7 8 6 5 7 9 10 9
4 7 11 15 16 13 22 16 20 9 4 7 5 6 6 5 5 4 4 3 1 1 0 1 4 4 7 4 3 3 3 9 9 13 7 11 8 10 5 8 9 9 9 11 10
6 4 8 14 20 18 13 20 20 18 12 7 5 9 7 3 6 5 7 6 5 3 5 1 2 3 3 5 6 5 6 9 10 13 14 13 16 5 3 5 6 7 9 14 14
8 1 8 11 20 18 15 19 16 14 8 10 8 4 7 5 8 5 6 5 7 8 6 5 2 2 4 1 3 6 12 16 14 10 9 12 11 3 3 4 1 5 4 9 12
Wind_Direction
240 244 255 265 269 276 280 286 302 313 310 307 310 318 322 321 305 211 254 304 152 155 152 219 231 227 246 193 295 302 316 272 235 146 280 94 30 343 134 231 270 218 91 123 132
240 251 247 248 256 258 268 287 300 300 313 306 304 315 319 324 274 257 227 127 142 160 212 212 210 182 241 196 230 257 209 285 49 19 10 48 41 336 351 304 308 285 60 127 152
233 243 258 254 252 258 271 282 291 295 316 308 302 310 312 320 269 221 139 140 155 189 269 294 310 276 275 333 215 233 251 46 358 38 15 359 316 357 312 289 68 5 360 4 350
228 232 233 241 243 249 248 263 284 299 311 300 300 309 314 267 256 82 147 132 160 230 261 252 258 245 244 212 181 298 249 341 344 81 344 288 3 307 271 291 71 19 29 319 307
232 230 230 233 234 243 255 269 292 301 294 289 305 315 307 230 267 129 141 137 180 225 245 247 288 320 254 299 290 242 273 26 326 273 215 250 268 246 281 82 93 134 239 29 14
232 238 227 229 231 226 237 252 276 274 277 293 305 312 246 255 80 127 166 162 226 220 240 267 317 26 299 311 312 1 324 297 284 270 280 202 267 129 211 142 163 160 63 63 43
224 234 229 226 221 222 232 250 274 283 278 285 286 288 267 246 71 126 166 202 228 224 268 56 343 310 352 296 2 277 286 273 243 164 119 225 256 206 150 184 175 121 101 74 55
215 218 223 220 224 223 227 249 279 272 270 267 271 256 257 83 2 191 190 192 255 268 323 51 293 297 287 346 255 246 244 253 110 151 160 182 291 148 168 185 132 110 100 84 63
216 214 208 208 212 228 235 253 257 263 260 255 245 229 251 165 209 209 192 188 181 128 48 185 256 276 166 237 275 204 271 220 164 199 140 194 336 147 163 253 173 133 113 100 82
216 214 199 196 200 206 209 246 348 280 244 243 267 245 242 242 186 216 190 222 160 159 170 232 225 222 233 235 249 338 255 296 188 183 210 249 253 200 180 187 234 135 119 103 92
209 200 191 189 187 188 186 143 151 206 221 211 197 227 29 120 116 230 167 210 199 182 210 197 214 232 245 232 239 12 317 300 297 128 144 240 250 251 174 166 223 157 126 119 112
200 198 176 172 173 181 243 240 331 91 204 228 240 213 265 305 254 214 156 196 191 204 222 234 229 249 267 3 344 292 278 275 279 118 103 270 267 230 148 222 206 157 129 135 135
195 181 159 159 152 167 221 224 315 225 277 243 212 218 213 210 248 207 170 211 188 219 231 239 236 29 201 151 274 248 248 268 294 116 224 256 272 220 189 211 173 142 137 146 140
185 168 146 136 144 187 220 237 312 298 271 244 184 220 202 221 247 256 188 194 247 231 238 246 235 197 210 240 220 265 21 308 293 319 260 139 290 140 169 167 145 148 146 153 147
172 163 153 176 283 167 190 184 235 273 254 169 154 33 184 192 135 197 69 239 231 210 246 216 154 194 236 244 250 252 4 283 248 257 301 245 225 265 151 192 193 194 174 159 149
166 164 165 206 264 236 136 146 184 199 245 161 127 175 157 197 214 92 164 28 275 266 221 249 351 202 243 90 39 112 220 215 244 237 262 240 180 207 176 196 186 188 187 160 159
163 165 166 182 210 172 140 159 156 230 62 166 186 172 188 186 215 168 182 195 193 188 221 229 202 159 155 134 144 224 275 253 248 186 230 49 115 252 197 182 176 177 180 165 158
155 156 200 209 207 156 182 172 216 185 224 133 159 168 192 174 204 182 192 208 225 220 230 202 214 173 183 219 184 195 203 215 305 29 163 55 230 236 76 63 156 174 170 159 160
139 163 189 220 203 208 163 199 206 258 138 149 149 185 195 157 152 179 222 213 215 212 217 224 185 31 76 286 201 164 201 2 293 268 340 223 204 357 90 78 352 178 160 168 165
152 160 197 180 206 215 173 211 204 89 79 159 180 197 174 168 167 184 196 212 222 202 221 290 111 199 92 20 292 302 311 159 231 249 241 256 259 208 193 195 203 226 176 168 159
145 147 148 162 194 196 200 197 237 118 178 184 271 194 185 169 199 190 221 265 202 179 198 247 234 118 130 207 177 186 245 220 187 236 219 332 280 330 193 183 189 210 212 160 155
156 162 183 179 180 198 206 188 229 203 139 318 274 280 220 156 184 196 230 114 56 124 164 209 313 174 192 76 57 263 210 202 162 250 222 140 276 16 8 149 161 189 189 156 155
161 113 243 207 199 190 193 213 233 214 176 184 234 249 351 154 192 218 112 330 106 146 172 171 230 161 134 165 222 219 202 252 317 53 230 212 259 246 242 219 169 175 164 144 132
155 134 147 228 243 182 191 206 215 215 227 212 170 146 155 196 101 170 112 75 145 144 60 95 278 226 173 120 125 196 203 198 199 209 235 228 265 230 216 213 186 183 147 132 128
246 159 164 182 203 210 183 198 200 176 215 188 201 216 190 167 156 187 113 119 20 21 164 170 233 253 276 136 117 310 250 202 205 242 227 262 280 280 323 187 215 187 150 138 142
201 175 148 164 190 200 214 201 204 190 174 196 214 197 236 200 186 175 139 171 178 166 196 187 265 31 307 311 209 228 252 263 237 231 245 259 272 295 317 50 16 188 168 161 160
220 321 144 158 187 193 204 208 203 182 219 194 200 232 203 217 91 100 58 65 146 149 188 148 180 149 256 167 353 284 221 229 241 244 236 245 250 137 33 78 25 343 7 165 148